Погода в Черчилле

Канада     58°46′07″N   94°09′59″W
темп.,
°C
ветер,
м/с
пор.,
м/с
влажн.,
%
обл.,
%
осадки,
мм/ч
давл.,
гПа
погр.,
м
21 апреля, ср
ср2101:00−9зсз449518 0.0 101030
04:00−10зсз449621 0.0 101031
07:00−10зсз339678 0.0 100925
10:00−5сз3591100 0.0 1008165
13:00−1зюз239385 0.0 1007226
16:00+1ююз3598100 0.0 1006149
19:00+1юз3599100 0.0 1004112
22:00−1ююз22100100 0.1 100337
22 апреля, чт
чт2201:00−1ююз1199100 0.3 100126
04:00−1св23100100 0.1 99965
07:00−2с91397100 2.1 1000402
10:00−6с121794100 2.8 1002558
13:00−9ссз121793100 5.0 1005607
16:00−9ссз121591100 0.6 1008719
19:00−11сз10148138 0.7 1010680
22:00−15сз612885 0.0 1012159
23 апреля, пт
пт2301:00−18зсз58935 0.0 101182
04:00−19зсз57925 0.0 101270
07:00−18з48925 0.0 101294
10:00−13зсз69815 0.0 1013381
13:00−10зсз81068100 0.0 10141316
16:00−9зсз71064100 0.0 10141451
19:00−10зсз238194 0.1 1015125
22:00−15ю33945 0.0 101510
24 апреля, сб
сб2401:00−16ююз468963 0.0 101444
04:00−15юз3394100 0.0 101428
07:00−13ю229599 0.0 101439
10:00−8ю4693100 0.6 1013316
13:00−7ссз6587100 1.4 1013372
16:00−8ссз6780100 0.1 1014507
19:00−9с5683100 0.1 1015324
22:00−12ссв3486100 0.0 101540
25 апреля, вс
вс2501:00−14св3388100 0.0 101530
04:00−15ссв1189100 0.0 10159
07:00−17сз339231 0.0 101626
10:00−13с22825 0.0 1017115
13:00−10всв22710 0.0 1017237
16:00−8в22675 0.0 1017368
19:00−10вюв46815 0.0 101878
22:00−15юв4487100 0.0 101840